TimeCDT,TemperatureF,Dew PointF,Humidity,Sea Level PressureIn,VisibilityMPH,Wind Direction,Wind SpeedMPH,Gust SpeedMPH,PrecipitationIn,Events,Conditions,WindDirDegrees,DateUTC
12:14 AM,30.2,28.4,93,29.82,10.0,Calm,Calm,-,N/A,,Clear,0,2012-10-21 05:14:00
12:34 AM,28.4,26.6,93,29.82,10.0,Calm,Calm,-,N/A,,Clear,0,2012-10-21 05:34:00
12:53 AM,28.4,26.6,93,29.83,5.0,Calm,Calm,-,N/A,,Clear,0,2012-10-21 05:53:00
1:14 AM,30.2,26.6,86,29.84,10.0,WSW,3.5,-,N/A,,Clear,250,2012-10-21 06:14:00
1:34 AM,33.8,30.2,87,29.84,10.0,West,3.5,-,N/A,,Clear,260,2012-10-21 06:34:00
1:53 AM,28.4,26.6,93,29.84,10.0,Calm,Calm,-,N/A,,Clear,0,2012-10-21 06:53:00
2:14 AM,28.4,24.8,86,29.85,10.0,Calm,Calm,-,N/A,,Clear,0,2012-10-21 07:14:00
2:34 AM,28.4,24.8,86,29.84,10.0,Calm,Calm,-,N/A,,Clear,0,2012-10-21 07:34:00
2:53 AM,28.4,24.8,86,29.84,10.0,Calm,Calm,-,N/A,,Clear,0,2012-10-21 07:53:00
3:14 AM,28.4,26.6,93,29.84,10.0,Calm,Calm,-,N/A,,Clear,0,2012-10-21 08:14:00
3:34 AM,30.2,26.6,86,29.84,7.0,Calm,Calm,-,N/A,,Clear,0,2012-10-21 08:34:00
3:54 AM,30.2,28.4,93,29.84,5.0,Calm,Calm,-,N/A,,Clear,0,2012-10-21 08:54:00
4:14 AM,30.2,28.4,93,29.86,4.0,Calm,Calm,-,N/A,,Clear,0,2012-10-21 09:14:00
4:34 AM,35.6,32.0,87,29.86,10.0,Calm,Calm,-,N/A,,Clear,0,2012-10-21 09:34:00
4:54 AM,28.4,26.6,93,29.86,10.0,Calm,Calm,-,N/A,,Clear,0,2012-10-21 09:54:00
5:14 AM,30.2,26.6,86,29.87,7.0,West,3.5,-,N/A,,Clear,270,2012-10-21 10:14:00
5:34 AM,28.4,24.8,86,29.86,10.0,Calm,Calm,-,N/A,,Clear,0,2012-10-21 10:34:00
5:53 AM,28.4,24.8,86,29.86,10.0,Calm,Calm,-,N/A,,Clear,0,2012-10-21 10:53:00
6:14 AM,28.4,26.6,93,29.85,7.0,Calm,Calm,-,N/A,,Clear,0,2012-10-21 11:14:00
6:33 AM,30.2,26.6,86,29.86,1.2,Calm,Calm,-,N/A,,Mostly Cloudy,0,2012-10-21 11:33:00
6:54 AM,30.2,28.4,93,29.86,1.5,SSE,3.5,-,N/A,,Mist,150,2012-10-21 11:54:00
7:14 AM,30.2,28.4,93,29.86,2.0,Calm,Calm,-,N/A,,Clear,0,2012-10-21 12:14:00
7:34 AM,33.8,30.2,87,29.87,4.0,Calm,Calm,-,N/A,,Clear,0,2012-10-21 12:34:00
7:54 AM,33.8,30.2,87,29.88,3.0,Calm,Calm,-,N/A,,Scattered Clouds,0,2012-10-21 12:54:00
8:13 AM,32.0,28.4,87,29.87,0.5,Calm,Calm,-,N/A,Fog,Fog,0,2012-10-21 13:13:00
8:24 AM,33.8,30.2,87,29.87,0.2,Calm,Calm,-,N/A,Fog,Fog,0,2012-10-21 13:24:00
8:54 AM,37.4,35.6,93,29.87,0.5,SSE,3.5,-,N/A,Fog,Fog,160,2012-10-21 13:54:00
9:13 AM,39.2,35.6,87,29.88,0.5,Calm,Calm,-,N/A,Fog,Fog,0,2012-10-21 14:13:00
9:34 AM,39.2,37.4,93,29.90,4.0,South,3.5,-,N/A,,Overcast,190,2012-10-21 14:34:00
9:54 AM,39.2,37.4,93,29.91,5.0,SSW,3.5,-,N/A,,Overcast,210,2012-10-21 14:54:00
10:14 AM,39.2,37.4,93,29.93,5.0,SSW,5.8,-,N/A,,Overcast,210,2012-10-21 15:14:00
10:33 AM,39.2,37.4,93,29.91,7.0,Calm,Calm,-,N/A,,Overcast,0,2012-10-21 15:33:00
10:54 AM,39.2,37.4,93,29.91,5.0,Calm,Calm,-,N/A,,Overcast,0,2012-10-21 15:54:00
11:14 AM,39.2,37.4,93,29.92,4.0,Calm,Calm,-,N/A,,Drizzle,0,2012-10-21 16:14:00
11:33 AM,41.0,37.4,87,29.90,2.0,Calm,Calm,-,N/A,Rain,Light Rain,0,2012-10-21 16:33:00
11:54 AM,41.0,37.4,87,29.89,1.8,Calm,Calm,-,N/A,Rain,Rain,0,2012-10-21 16:54:00
12:14 PM,42.8,39.2,87,29.89,1.8,SSE,3.5,-,N/A,,Mostly Cloudy,150,2012-10-21 17:14:00
12:33 PM,42.8,39.2,87,29.89,2.5,SE,3.5,-,N/A,,Mostly Cloudy,140,2012-10-21 17:33:00
12:53 PM,44.6,39.2,81,29.89,3.0,South,4.6,-,N/A,,Haze,170,2012-10-21 17:53:00
1:14 PM,44.6,39.2,81,29.89,4.0,SSE,4.6,-,N/A,,Haze,160,2012-10-21 18:14:00
1:34 PM,44.6,41.0,87,29.89,4.0,South,6.9,-,N/A,,Light Drizzle,180,2012-10-21 18:34:00
1:53 PM,44.6,39.2,81,29.90,5.0,Calm,Calm,-,N/A,,Haze,0,2012-10-21 18:53:00
2:14 PM,44.6,39.2,81,29.88,4.0,ESE,4.6,-,N/A,,Haze,110,2012-10-21 19:14:00
2:33 PM,46.4,39.2,76,29.88,7.0,Calm,Calm,-,N/A,,Clear,0,2012-10-21 19:33:00
2:54 PM,44.6,39.2,81,29.88,7.0,SSE,5.8,-,N/A,,Clear,150,2012-10-21 19:54:00
3:14 PM,44.6,39.2,81,29.89,7.0,Calm,Calm,-,N/A,,Clear,0,2012-10-21 20:14:00
3:34 PM,44.6,39.2,81,29.88,7.0,Calm,Calm,-,N/A,,Clear,0,2012-10-21 20:34:00
3:54 PM,44.6,39.2,81,29.89,7.0,South,3.5,-,N/A,,Clear,170,2012-10-21 20:54:00
4:14 PM,44.6,39.2,81,29.89,7.0,South,3.5,-,N/A,,Clear,170,2012-10-21 21:14:00
4:34 PM,44.6,39.2,81,29.90,7.0,Calm,Calm,-,N/A,,Clear,0,2012-10-21 21:34:00
4:54 PM,44.6,39.2,81,29.90,10.0,Calm,Calm,-,N/A,,Clear,0,2012-10-21 21:54:00
5:14 PM,44.6,39.2,81,29.90,7.0,Calm,Calm,-,N/A,,Clear,0,2012-10-21 22:14:00
5:34 PM,44.6,39.2,81,29.90,7.0,Calm,Calm,-,N/A,,Clear,0,2012-10-21 22:34:00
5:53 PM,42.8,37.4,81,29.90,7.0,Calm,Calm,-,N/A,,Clear,0,2012-10-21 22:53:00
6:13 PM,42.8,37.4,81,29.90,7.0,Calm,Calm,-,N/A,,Clear,0,2012-10-21 23:13:00
6:33 PM,42.8,37.4,81,29.90,7.0,NNE,3.5,-,N/A,,Clear,20,2012-10-21 23:33:00
6:43 PM,42.8,37.4,81,29.90,7.0,Calm,Calm,-,N/A,,Clear,0,2012-10-21 23:43:00
7:14 PM,42.8,37.4,81,29.92,7.0,NNW,3.5,-,N/A,,Clear,330,2012-10-22 00:14:00
7:34 PM,42.8,37.4,81,29.92,7.0,Calm,Calm,-,N/A,,Mostly Cloudy,0,2012-10-22 00:34:00
7:53 PM,42.8,37.4,81,29.93,7.0,Calm,Calm,-,N/A,,Overcast,0,2012-10-22 00:53:00
8:13 PM,42.8,37.4,81,29.93,7.0,Calm,Calm,-,N/A,,Scattered Clouds,0,2012-10-22 01:13:00
8:34 PM,41.0,37.4,87,29.93,7.0,NNW,4.6,-,N/A,,Scattered Clouds,340,2012-10-22 01:34:00
8:54 PM,42.8,37.4,81,29.93,10.0,Calm,Calm,-,N/A,,Scattered Clouds,0,2012-10-22 01:54:00
9:14 PM,42.8,37.4,81,29.94,10.0,North,3.5,-,N/A,,Clear,350,2012-10-22 02:14:00
9:33 PM,42.8,37.4,81,29.95,10.0,Calm,Calm,-,N/A,,Clear,0,2012-10-22 02:33:00
9:54 PM,42.8,37.4,81,29.95,10.0,Calm,Calm,-,N/A,,Clear,0,2012-10-22 02:54:00
10:14 PM,41.0,37.4,87,29.95,10.0,Calm,Calm,-,N/A,,Clear,0,2012-10-22 03:14:00
10:33 PM,42.8,37.4,81,29.96,10.0,NW,4.6,-,N/A,,Clear,320,2012-10-22 03:33:00
10:54 PM,41.0,37.4,87,29.95,10.0,Calm,Calm,-,N/A,,Scattered Clouds,0,2012-10-22 03:54:00
11:14 PM,42.8,37.4,81,29.95,10.0,Calm,Calm,-,N/A,,Scattered Clouds,0,2012-10-22 04:14:00
11:33 PM,41.0,37.4,87,29.96,10.0,Calm,Calm,-,N/A,,Scattered Clouds,0,2012-10-22 04:33:00
11:53 PM,42.8,37.4,81,29.96,10.0,Calm,Calm,-,N/A,,Scattered Clouds,0,2012-10-22 04:53:00